Location: Prague
(50.0830°N, 14.4670°E)
Time: 23:23:21
(UTC+01:00)

BEESAT 2 - Pass Details

Date: 07 December 2021
Orbit: 498 x 513 km, 64.9° (Epoch: 22 January)

Event Time Altitude Azimuth Distance (km) Brightness Sun altitude
Exits shadow 05:59:38 33° 271° (W) 888 ? -16.2°
Maximum altitude 06:00:31 38° 239° (WSW) 799 ? -16.1°
Drops below altitude 10° 06:04:08 10° 170° (S) 1,733 ? -15.5°
Sets 06:06:23 0° 162° (SSE) 2,612 ? -15.2°
